User: anonymous   Login
Location: Unspecified
(0.0000°N, 0.0000°E)
Time: 16:39:28
(UTC+00:00)
Language:

SR 8 - Orbit

View from above orbital plane
View from above orbital plane
View from above satellite
View from above satellite

Ground track
Ground track

The orbit data is extracted from the following two-line orbital elements,

1  1738U 65093A   18169.95372712 -.00000125 +00000-0 +83944-5 0  9995
2  1738 059.7098 080.9375 0124294 244.2941 114.5220 14.40160477735687
Epoch (UTC): 18 June 2018 22:53:22
Eccentricity: 0.0124294
inclination: 59.7098°
perigee height: 669 km
apogee height: 846 km
right ascension of ascending node: 80.9375°
argument of perigee: 244.2941°
revolutions per day: 14.40160477
mean anomaly at epoch: 114.5220°
orbit number at epoch: 73568

The dashed part of the orbit path shows where the satellite is in the earth's shadow,  

DLR